[[{"header":{"parameterUnit":"m.s-1","parameterCategory":1,"la1":30.2991,"la2":30.254,"lo1":-89.0895,"lo2":-89.0444,"dy":0.0017,"dx":0.0017,"nx":28,"ny":28,"refTime":"2025-09-14T21:00:00:Z","depth":0,"parameterNumber":2,"parameterNumberName":"U-component_of_WINDS"},"data":[0,0,0,0,0,0,0,0,0,0,0,0,0,0,0,0,0,0,0,0,0,0,0,0,0,0,0,0,0,0,0,0,0,0,0,0,0,0,0,0,0,0,0,0,0,0,0,0,0,0,0,0,0,0,0,0,0,0,-0.9484,-0.9483,0,-0.9403,-0.9402,-0.9401,-0.9325,-0.9324,-0.9323,-0.9322,-0.9239,-0.9238,-0.9237,0,0,0,0,0,0,0,0,0,0,0,0,0,-0.9575,-0.9574,-0.9484,-0.9483,-0.9482,-0.9403,-0.9402,-0.9401,-0.9325,-0.9324,-0.9323,-0.9322,-0.924,-0.9238,-0.9237,0,0,0,0,0,0,0,0,0,0,0,0,0,-0.9519,-0.9574,-0.9484,-0.9435,-0.943,-0.9403,-0.9402,-0.94,-0.9325,-0.9324,-0.9322,-0.9321,-0.924,-0.9238,-0.9237,-0.9253,0,0,-0.9231,-0.923,0,0,0,0,0,0,0,0,-0.9522,-0.9516,-0.9443,-0.9438,-0.9432,-0.9372,-0.9404,-0.9351,-0.9326,-0.9365,-0.9322,-0.932,-0.9285,-0.9279,-0.9267,-0.9249,-0.9246,-0.923,-0.9229,-0.9228,-0.9228,0,0,0,0,0,0,0,-0.9526,-0.9519,-0.9452,-0.9442,-0.9436,-0.9417,-0.9407,-0.9393,-0.9334,-0.9361,-0.9356,-0.9347,-0.9282,-0.9269,-0.9265,-0.9244,-0.923,-0.9229,-0.9227,-0.9227,-0.9238,-0.9239,0,0,0,0,0,0,-0.9538,-0.9523,-0.9455,-0.945,-0.9475,-0.9417,-0.9406,-0.9393,-0.9334,-0.9323,-0.9348,-0.9344,-0.9273,-0.9267,-0.9261,-0.9278,-0.9228,-0.9226,-0.9225,-0.9236,-0.9238,-0.924,0,0,0,0,0,0,-0.954,-0.9532,-0.9458,-0.9485,-0.9474,-0.9417,-0.9403,-0.9392,-0.938,-0.9324,-0.9313,-0.9346,-0.9272,-0.9264,-0.9256,-0.9274,-0.9226,-0.9224,-0.9235,-0.9237,-0.9239,-0.9311,0,0,0,0,0,0,-0.9543,-0.9534,-0.9539,-0.9485,-0.9473,-0.9454,-0.9404,-0.9392,-0.9376,-0.937,-0.9319,-0.931,-0.927,-0.9259,-0.9254,-0.9271,-0.9222,-0.9233,-0.9236,-0.9238,-0.9307,-0.9316,-0.9323,0,0,0,0,0,-0.9546,-0.9562,-0.954,-0.9532,-0.9478,-0.9455,-0.9447,-0.9402,-0.9378,-0.9383,-0.9348,-0.9311,-0.9273,-0.9259,-0.9253,-0.9269,-0.9231,-0.9235,-0.9238,-0.9303,-0.9314,-0.9323,0,0,0,0,0,0,-0.9619,-0.9554,-0.9528,-0.9527,-0.9497,-0.9442,-0.9447,-0.9414,-0.939,-0.9385,-0.9329,-0.9318,-0.9317,-0.9292,-0.9278,-0.9283,-0.9247,-0.9249,-0.9299,-0.9309,-0.9317,-0.9323,-0.9221,0,0,0,0,0,-0.9635,-0.9622,-0.9565,-0.957,-0.9556,-0.9505,-0.9493,-0.946,-0.9427,-0.9414,-0.9377,-0.9347,-0.9328,-0.9317,-0.9296,-0.9303,-0.9292,-0.9311,-0.9319,-0.9326,-0.9329,-0.9332,-0.934,-0.9251,-0.9251,-0.925,0,0,-0.9668,-0.9631,-0.9626,-0.9584,-0.9557,-0.9545,-0.9494,-0.9483,-0.9474,-0.9412,-0.9402,-0.9375,-0.9337,-0.9337,-0.9335,-0.9316,-0.9351,-0.933,-0.9336,-0.9335,-0.9336,-0.9345,-0.9353,-0.9253,-0.9252,-0.9252,0,0,-0.9722,-0.9692,-0.9693,-0.9667,-0.9627,-0.9592,-0.9593,-0.9543,-0.9522,-0.9512,-0.9466,-0.9454,-0.9422,-0.9398,-0.9381,-0.9428,-0.9394,-0.9423,-0.9465,-0.9469,-0.9476,-0.9482,-0.9501,-0.9508,-0.9425,-0.9426,-0.9426,0,-0.9768,-0.9747,-0.9698,-0.969,-0.9674,-0.9617,-0.9619,-0.9596,-0.9551,-0.9542,-0.9521,-0.9481,-0.9451,-0.9446,-0.9457,-0.9445,-0.9445,-0.9428,-0.9479,-0.9485,-0.949,-0.9506,-0.9513,-0.9429,-0.9429,-0.9429,-0.9428,0,-0.9807,-0.9794,-0.9799,-0.9758,-0.9742,-0.9739,-0.969,-0.968,-0.9649,-0.9617,-0.9608,-0.9571,-0.9543,-0.9539,-0.9508,-0.9529,-0.9519,-0.9489,-0.9453,-0.9503,-0.9518,-0.9524,-0.9435,-0.9434,-0.9432,-0.9432,0,0,-0.9904,-0.9836,-0.984,-0.9821,-0.9773,-0.9762,-0.9757,-0.9729,-0.9723,-0.9694,-0.9689,-0.9664,-0.9637,-0.9618,-0.9585,-0.9588,-0.963,-0.9558,-0.9556,-0.9574,-0.9653,-0.9677,-0.9685,-0.9606,-0.9607,-0.9608,-0.9657,0,-0.9951,-0.9939,-0.9895,-0.9895,-0.9884,-0.983,-0.9826,-0.9797,-0.9767,-0.9753,-0.972,-0.9704,-0.9669,-0.9658,-0.9658,-0.9624,-0.9645,-0.962,-0.9603,-0.9603,-0.9616,-0.9692,-0.9717,-0.9764,-0.9662,-0.9663,-0.9663,0,-1.0004,-0.998,-0.998,-0.9934,-0.9927,-0.9924,-0.9896,-0.9883,-0.9849,-0.9827,-0.9808,-0.977,-0.9763,-0.9729,-0.9719,-0.9703,-0.9694,-0.9676,-0.9677,-0.9674,-0.9637,-0.9693,-0.9778,-0.9786,-0.9672,-0.9671,-0.9671,0,-1.0078,-1.0044,-1.0041,-1.0026,-0.9972,-0.9971,-0.9948,-0.9913,-0.99,-0.9876,-0.9867,-0.9842,-0.9829,-0.9811,-0.9769,-0.9747,-0.9765,-0.9726,-0.9748,-0.9749,-0.9755,-0.9755,-0.984,-0.9746,-0.9746,-0.9746,-0.9746,0,-1.0136,-1.0138,-1.0073,-1.0071,-1.0073,-1.0022,-1.0025,-0.9998,-0.9967,-0.9959,-0.9911,-0.9905,-0.9849,-0.9837,-0.9803,-0.9801,-0.9795,-0.9779,-0.977,-0.9784,-0.9786,-0.9778,-0.9774,-0.9748,-0.9747,-0.9747,-0.9747,0,-1.0218,-1.0174,-1.0167,-1.0116,-1.0104,-1.0108,-1.0065,-1.0061,-1.0029,-1.002,-1.0015,-0.9965,-0.9948,-0.9903,-0.9875,-0.9853,-0.9861,-0.9844,-0.9873,-0.9867,-0.9892,-0.9891,-0.9976,-0.9986,-0.9885,-0.9886,-0.9886,0,-1.0259,-1.0259,-1.0209,-1.0201,-1.018,-1.0167,-1.0153,-1.0104,-1.0092,-1.0054,-1.0056,-1.0035,-1.0017,-0.9993,-0.9954,-0.9933,-0.9916,-0.9947,-0.9912,-0.9927,-0.9918,-0.992,-0.992,-0.9955,-0.9956,-0.9958,-0.9958,0,-1.0336,-1.0314,-1.0297,-1.0272,-1.0258,-1.0236,-1.0211,-1.0207,-1.0152,-1.0141,-1.0124,-1.0109,-1.0081,-1.0062,-1.0034,-1.0012,-0.9977,-0.997,-0.9974,-0.9989,-1.0006,-0.9999,-0.9895,-0.9968,-0.9967,-0.9966,-0.9966,-0.9965,-1.0399,-1.0398,-1.0363,-1.0346,-1.0322,-1.0301,-1.0296,-1.0263,-1.0248,-1.0221,-1.0193,-1.0179,-1.0146,-1.0106,-1.0086,-1.0075,-1.0057,-1.0062,-1.0064,-1.0067,-1.0074,-1.0007,-1.007,-1.007,-1.0069,-1.0069,-1.0069,0,-1.0476,-1.0451,-1.0435,-1.0403,-1.039,-1.0357,-1.0329,-1.032,-1.0308,-1.0281,-1.0263,-1.0244,-1.0226,-1.0187,-1.0165,-1.0164,-1.0148,-1.016,-1.016,-1.0156,-1.0091,-1.009,-1.0174,-1.0174,-1.0174,-1.0174,-1.0174,-1.0174,-1.0514,-1.0511,-1.0486,-1.0472,-1.0446,-1.0433,-1.0419,-1.04,-1.0378,-1.0359,-1.0344,-1.0318,-1.0286,-1.0262,-1.0244,-1.0233,-1.0228,-1.0247,-1.0231,-1.017,-1.0161,-1.0151,-1.015,-1.0245,-1.0246,-1.0297,-1.0298,-1.0298]},{"header":{"parameterUnit":"m.s-1","parameterCategory":1,"la1":30.2991,"la2":30.254,"lo1":-89.0895,"lo2":-89.0444,"dy":0.0017,"dx":0.0017,"nx":28,"ny":28,"refTime":"2025-09-14T21:00:00:Z","depth":0,"parameterNumber":3,"parameterNumberName":"V-component_of_WINDS"},"data":[0,0,0,0,0,0,0,0,0,0,0,0,0,0,0,0,0,0,0,0,0,0,0,0,0,0,0,0,0,0,0,0,0,0,0,0,0,0,0,0,0,0,0,0,0,0,0,0,0,0,0,0,0,0,0,0,0,0,1.8729,1.8729,0,1.8748,1.8748,1.8748,1.8774,1.8774,1.8774,1.8775,1.8792,1.8792,1.8792,0,0,0,0,0,0,0,0,0,0,0,0,0,1.871,1.8711,1.8729,1.8729,1.8729,1.8748,1.8748,1.8748,1.8774,1.8774,1.8775,1.8775,1.8791,1.8792,1.8792,0,0,0,0,0,0,0,0,0,0,0,0,0,1.8723,1.8711,1.8729,1.8744,1.8746,1.8748,1.8748,1.8749,1.8773,1.8774,1.8775,1.8775,1.8791,1.8792,1.8792,1.8779,0,0,1.8792,1.8792,0,0,0,0,0,0,0,0,1.8722,1.8723,1.8742,1.8743,1.8745,1.8759,1.8748,1.8759,1.8773,1.8763,1.8775,1.8776,1.878,1.8781,1.8783,1.878,1.8781,1.8792,1.8792,1.8792,1.8792,0,0,0,0,0,0,0,1.8721,1.8723,1.8736,1.8742,1.8744,1.8749,1.8751,1.875,1.8768,1.8764,1.8766,1.8768,1.8781,1.8783,1.8784,1.8781,1.8792,1.8792,1.8792,1.8792,1.8766,1.8765,0,0,0,0,0,0,1.8718,1.8722,1.8736,1.8737,1.8735,1.8749,1.8751,1.8754,1.8768,1.877,1.8767,1.8769,1.8783,1.8784,1.8784,1.8769,1.8792,1.8792,1.8792,1.8767,1.8766,1.8765,0,0,0,0,0,0,1.8718,1.8719,1.8735,1.873,1.8732,1.8748,1.8751,1.8754,1.8756,1.877,1.8773,1.8766,1.8783,1.8784,1.878,1.877,1.8792,1.8792,1.8768,1.8766,1.8765,1.8739,0,0,0,0,0,0,1.8717,1.8719,1.8716,1.873,1.8732,1.8731,1.875,1.8754,1.8756,1.8759,1.877,1.8773,1.8784,1.878,1.878,1.877,1.8792,1.8768,1.8767,1.8766,1.874,1.8737,1.8734,0,0,0,0,0,1.8717,1.8707,1.8715,1.8717,1.8729,1.8731,1.8732,1.8746,1.8756,1.8751,1.876,1.8772,1.8771,1.8779,1.878,1.877,1.8769,1.8767,1.8766,1.8742,1.8738,1.8734,0,0,0,0,0,0,1.8691,1.871,1.8719,1.8714,1.8721,1.8735,1.873,1.8741,1.8745,1.8747,1.8763,1.8765,1.8758,1.8764,1.8772,1.8757,1.8772,1.877,1.8753,1.8749,1.8746,1.8744,1.8792,0,0,0,0,0,1.8685,1.8687,1.8702,1.8697,1.87,1.8714,1.8716,1.8726,1.8733,1.8736,1.8744,1.875,1.875,1.8751,1.8752,1.8742,1.8743,1.8735,1.8732,1.8729,1.8727,1.8719,1.8714,1.8759,1.876,1.876,0,0,1.8673,1.8683,1.8683,1.8692,1.8698,1.8697,1.8716,1.8716,1.8715,1.8735,1.8731,1.8738,1.8745,1.8736,1.8733,1.8741,1.8715,1.8727,1.8724,1.8724,1.8716,1.8712,1.8708,1.8758,1.8759,1.8759,0,0,1.8649,1.8658,1.8653,1.8659,1.8668,1.8678,1.8677,1.8689,1.8694,1.8691,1.8705,1.8704,1.8706,1.8709,1.8711,1.8687,1.8697,1.8687,1.8668,1.866,1.8657,1.8654,1.8642,1.8638,1.8685,1.8685,1.8685,0,1.8632,1.8633,1.8649,1.8647,1.8649,1.8668,1.8662,1.8667,1.8676,1.8676,1.8685,1.8686,1.8692,1.8684,1.8677,1.8679,1.8676,1.8685,1.8656,1.8653,1.865,1.864,1.8636,1.8684,1.8684,1.8684,1.8684,0,1.861,1.861,1.8605,1.8613,1.8615,1.8611,1.8625,1.8625,1.8634,1.8642,1.8636,1.8645,1.8647,1.8646,1.8656,1.8638,1.8642,1.8654,1.8668,1.8644,1.8634,1.8631,1.8681,1.8682,1.8682,1.8683,0,0,1.8571,1.8588,1.8585,1.8588,1.8599,1.8599,1.8594,1.8597,1.8595,1.8601,1.8596,1.8596,1.8605,1.8608,1.8618,1.8611,1.8588,1.8622,1.8623,1.8613,1.8566,1.8555,1.855,1.8595,1.8595,1.8594,1.8564,0,1.8548,1.8542,1.8556,1.8546,1.8545,1.8562,1.8558,1.8563,1.857,1.8569,1.8576,1.8575,1.8589,1.859,1.8585,1.8592,1.8578,1.8594,1.8588,1.8588,1.8584,1.8546,1.8536,1.8507,1.8561,1.856,1.856,0,1.852,1.8524,1.8514,1.8523,1.8523,1.8519,1.8521,1.8521,1.8526,1.8532,1.8533,1.8545,1.8539,1.8554,1.8545,1.8556,1.8554,1.8557,1.8556,1.8554,1.8571,1.854,1.8498,1.8493,1.8554,1.8555,1.8555,0,1.849,1.8492,1.8486,1.8488,1.85,1.8496,1.85,1.8507,1.8506,1.8508,1.8508,1.8509,1.8508,1.8508,1.8518,1.8529,1.8507,1.8524,1.8509,1.8508,1.8502,1.8501,1.8456,1.8505,1.8505,1.8505,1.8505,0,1.8461,1.8454,1.8472,1.8468,1.8459,1.8474,1.8464,1.847,1.8475,1.8471,1.8487,1.8482,1.8497,1.8493,1.8501,1.8491,1.8491,1.8494,1.8495,1.8491,1.849,1.8488,1.8489,1.8504,1.8504,1.8504,1.8504,0,1.8425,1.8438,1.8431,1.8442,1.8445,1.8437,1.8446,1.8441,1.8449,1.8443,1.8443,1.8455,1.8451,1.8461,1.846,1.8465,1.8448,1.8455,1.8446,1.8447,1.8431,1.8431,1.8381,1.8373,1.8429,1.8428,1.8428,0,1.8406,1.84,1.841,1.8408,1.8412,1.841,1.8409,1.8423,1.8422,1.8427,1.8421,1.8418,1.8417,1.841,1.8417,1.8415,1.842,1.8402,1.8419,1.8414,1.8416,1.8415,1.8413,1.8398,1.8397,1.8397,1.8396,0,1.8368,1.8374,1.8373,1.8374,1.8373,1.8375,1.8377,1.8374,1.8389,1.8387,1.8383,1.8382,1.8379,1.8376,1.8375,1.8378,1.8388,1.8391,1.8387,1.8381,1.8375,1.8375,1.8434,1.8392,1.8392,1.8392,1.8393,1.8393,1.8338,1.8332,1.8338,1.8336,1.8339,1.834,1.8336,1.8342,1.834,1.8339,1.8347,1.8341,1.8344,1.8344,1.8345,1.834,1.8347,1.8342,1.834,1.8338,1.8334,1.8378,1.834,1.834,1.834,1.834,1.834,0,1.8298,1.8302,1.8301,1.8303,1.8301,1.8312,1.8315,1.8311,1.8306,1.8308,1.8306,1.8301,1.8297,1.8303,1.83,1.8293,1.8298,1.8292,1.8291,1.829,1.8329,1.8331,1.8288,1.8288,1.8288,1.8288,1.8288,1.8288,1.8278,1.8268,1.8274,1.8266,1.827,1.8264,1.8264,1.8264,1.8266,1.8259,1.8256,1.826,1.8263,1.8259,1.8255,1.8257,1.8254,1.8245,1.8248,1.8283,1.8288,1.8293,1.8295,1.8245,1.8245,1.821,1.821,1.821]}]]